TimeEDT,TemperatureF,Dew PointF,Humidity,Sea Level PressureIn,VisibilityMPH,Wind Direction,Wind SpeedMPH,Gust SpeedMPH,PrecipitationIn,Events,Conditions,WindDirDegrees,DateUTC
12:00 AM,59.0,55.4,88,29.87,15.0,SE,17.3,25.3,N/A,,Scattered Clouds,140,2013-10-07 04:00:00
1:00 AM,59.0,55.4,88,29.86,15.0,SE,21.9,28.8,N/A,,Mostly Cloudy,140,2013-10-07 05:00:00
2:00 AM,59,56,85,29.85,15,SE,20.7,,,,Scattered Clouds,140,2013-10-07 06:00:00
2:00 AM,59.0,55.4,88,29.85,15.0,SE,20.7,27.6,N/A,,Mostly Cloudy,140,2013-10-07 06:00:00
3:00 AM,59.0,55.4,88,29.83,15.0,SE,17.3,23.0,N/A,,Mostly Cloudy,130,2013-10-07 07:00:00
4:00 AM,60.8,57.2,88,29.81,15.0,SE,19.6,-,N/A,,Mostly Cloudy,140,2013-10-07 08:00:00
5:00 AM,60.8,57.2,88,29.81,15.0,SE,16.1,-,N/A,,Mostly Cloudy,130,2013-10-07 09:00:00
6:00 AM,60.8,57.2,88,29.78,15.0,SE,18.4,24.2,N/A,,Scattered Clouds,140,2013-10-07 10:00:00
7:00 AM,60.8,57.2,88,29.78,15.0,SE,19.6,26.5,N/A,,Mostly Cloudy,140,2013-10-07 11:00:00
8:00 AM,62,58,82,29.78,15,SSE,18.4,,,,Scattered Clouds,160,2013-10-07 12:00:00
8:00 AM,62.6,57.2,82,29.78,15.0,SSE,17.3,25.3,N/A,,Mostly Cloudy,160,2013-10-07 12:00:00
9:00 AM,64.4,59.0,83,29.75,15.0,SSE,15.0,21.9,N/A,,Mostly Cloudy,160,2013-10-07 13:00:00
10:00 AM,66.2,59.0,78,29.70,15.0,SSE,18.4,26.5,N/A,,Mostly Cloudy,160,2013-10-07 14:00:00
11:00 AM,71.6,60.8,69,29.66,15.0,SSE,28.8,36.8,N/A,,Mostly Cloudy,160,2013-10-07 15:00:00
12:00 PM,73.4,60.8,65,29.62,15.0,SSE,24.2,34.5,N/A,,Mostly Cloudy,150,2013-10-07 16:00:00
1:00 PM,75.2,60.8,61,29.57,15.0,SSE,28.8,35.7,N/A,,Mostly Cloudy,150,2013-10-07 17:00:00
2:00 PM,73,62,59,29.50,12,SE,25.3,,,,Overcast,140,2013-10-07 18:00:00
2:00 PM,73.4,60.8,65,29.50,12.0,SE,26.5,33.4,N/A,,Overcast,140,2013-10-07 18:00:00
2:05 PM,73.4,60.8,65,29.50,6.0,SSE,33.4,40.3,N/A,Rain,Light Rain Showers,160,2013-10-07 18:05:00
2:07 PM,73.4,62.6,69,29.52,0.4,South,36.8,55.2,N/A,Rain,Heavy Rain,170,2013-10-07 18:07:00
2:10 PM,68.0,62.6,83,29.57,6.0,SW,39.1,57.5,N/A,Rain,Light Rain,220,2013-10-07 18:10:00
3:00 PM,60.8,59.0,94,29.59,8.0,West,15.0,24.2,N/A,Rain,Light Rain,270,2013-10-07 19:00:00
3:04 PM,60.8,59.0,94,29.59,6.0,West,13.8,23.0,N/A,Rain,Light Rain,260,2013-10-07 19:04:00
3:23 PM,59.0,57.2,94,29.61,6.0,West,11.5,19.6,N/A,Rain,Light Rain,270,2013-10-07 19:23:00
4:00 PM,59.0,57.2,94,29.61,7.0,WSW,17.3,-,N/A,Rain,Light Rain,240,2013-10-07 20:00:00
5:00 PM,57.2,55.4,94,29.60,8.0,West,13.8,-,N/A,Rain,Light Rain,260,2013-10-07 21:00:00
5:31 PM,57.2,55.4,94,29.65,3.0,WSW,12.7,-,N/A,Rain,Light Rain,240,2013-10-07 21:31:00
5:38 PM,57.2,55.4,94,29.64,5.0,WSW,19.6,-,N/A,Rain,Light Rain,240,2013-10-07 21:38:00
6:00 PM,57.2,51.8,82,29.66,12.0,WSW,20.7,31.1,N/A,Rain,Light Rain,240,2013-10-07 22:00:00
6:26 PM,57.2,51.8,82,29.68,15.0,SW,18.4,-,N/A,,Mostly Cloudy,220,2013-10-07 22:26:00
7:00 PM,57.2,50.0,77,29.70,15.0,SW,21.9,32.2,N/A,,Mostly Cloudy,220,2013-10-07 23:00:00
8:00 PM,57,51,74,29.73,15,SW,21.9,,,,Partly Cloudy,220,2013-10-08 00:00:00
8:00 PM,57.2,50.0,77,29.73,15.0,SW,24.2,-,N/A,,Mostly Cloudy,220,2013-10-08 00:00:00
9:00 PM,57.2,48.2,72,29.74,15.0,SW,23.0,31.1,N/A,,Mostly Cloudy,220,2013-10-08 01:00:00
10:00 PM,57.2,48.2,72,29.76,15.0,SW,24.2,33.4,N/A,,Partly Cloudy,230,2013-10-08 02:00:00
11:00 PM,57.2,46.4,67,29.78,15.0,SW,28.8,38.0,N/A,,Mostly Cloudy,230,2013-10-08 03:00:00